Simultaneous Nadir Overpasses (SNOs) Predictions

Prediction of SNOs between NOAA-20 and NOAA-19 Satellite Orbit:

Table of predicted SNOs for the next 14.0 days since TLE Epoch: 9/7/2024
Index Date (NOAA-20) Time (NOAA-20) Lat,Lon (NOAA-20) SZA (NOAA-20 ) Date (NOAA-19) Time (NOAA-19) Lat,Lon (NOAA-19) SZA (NOAA-19 ) Distance(km) Time Diff (sec)
1 09/09/2024 21:39:08 -72.39, 27.52 112.44 09/09/2024 21:37:56 -72.35, 26.48 112.42 35.26 72
2 09/09/2024 22:29:58 72.62,-165.63 67.83 09/09/2024 22:28:44 72.62,-165.67 67.84 1.23 74
3 09/09/2024 23:20:43 -72.65, 1.61 112.13 09/09/2024 23:19:48 -72.63, 1.58 112.14 3.05 55
4 09/10/2024 00:11:28 72.63, 168.97 67.87 09/10/2024 00:10:41 72.65, 168.90 67.90 3.04 47
5 09/10/2024 01:02:13 -72.66, -23.79 112.09 09/10/2024 01:01:45 -72.66, -23.85 112.09 2.05 28
6 09/10/2024 01:52:59 72.69, 143.46 67.96 09/10/2024 01:52:38 72.68, 143.48 67.95 1.60 21
7 09/10/2024 02:43:43 -72.68, -49.19 112.05 09/10/2024 02:43:42 -72.69, -49.27 112.03 2.87 1
8 09/10/2024 03:34:29 72.71, 118.06 68.00 09/10/2024 03:34:35 72.71, 118.06 68.00 0.50 6
9 09/10/2024 04:25:14 -72.74, -74.69 111.95 09/10/2024 04:25:39 -72.72, -74.69 111.98 2.59 25
10 09/10/2024 05:15:59 72.72, 92.66 68.04 09/10/2024 05:16:32 72.74, 92.63 68.06 2.57 33
11 09/10/2024 06:06:44 -72.75,-100.09 111.91 09/10/2024 06:07:36 -72.75,-100.12 111.93 1.04 52
12 09/10/2024 06:57:30 72.78, 67.16 68.13 09/10/2024 06:58:29 72.77, 67.21 68.11 2.11 59
13 09/10/2024 07:48:17 -72.92,-125.81 111.71 09/10/2024 07:49:30 -72.92,-125.21 111.74 19.46 73
14 09/10/2024 08:39:09 73.25, 40.79 68.67 09/10/2024 08:40:18 73.19, 42.68 68.53 60.95 69



Historial Predications of SNOs between NOAA-20 and NOAA-19
